Weather History for KPLN - July, 2013

Change the Weather History Date:

Friday, July 12, 2013

  Actual Average Record
Temperature  
Mean Temperature 62 °F -  
Max Temperature 84 °F 79 °F 95 °F (1966)
Min Temperature 43 °F 53 °F 37 °F (1978)
Degree Days  
Heating Degree Days 2    
Growing Degree Days 12 (Base 50)    
Moisture  
Dew Point 49 °F    
Average Humidity 64    
Maximum Humidity 93    
Minimum Humidity 32    
Precipitation  
Precipitation 0.00 in - - ()
Sea Level Pressure  
Sea Level Pressure 30.15 in    
Wind  
Wind Speed 3 mph (ESE)    
Max Wind Speed 13 mph    
Max Gust Speed -    
Visibility 10 miles    
Events      
Averages and records for this station are not official NWS values.
T = Trace of Precipitation, MM = Missing Value Source: NWS Daily Summary

Daily Weather History Graph

Daily Weather History Graph

Search for Another Location

Airport or City:

Trip Planner

Search our weather history database for the weather conditions in past years. The results will help you decide how hot, cold, wet, or windy it might be!

Date:

Astronomy

Jul. 12, 2013 Rise Set
Actual Time 6:02 AM EDT 9:26 PM EDT
Civil Twilight 5:25 AM EDT 10:03 PM EDT
Nautical Twilight 4:37 AM EDT 10:51 PM EDT
Astronomical Twilight 3:35 AM EDT 11:53 PM EDT
Moon 10:33 AM EDT (7/12) 11:19 PM EDT (7/12)
Length of Visible Light 16h 38m
Length of Day
15h 24m
Waxing Crescent, 17% of the Moon is Illuminated
Jul 12
Waxing Crescent
Jul 15
First Quarter
Jul 22
Full
Jul 29
Last Quarter
Aug 6
New

Hourly Weather History & Observations

Time (EDT) Temp. Windchill Dew Point Humidity Pressure Visibility Wind Dir Wind Speed Gust Speed Precip Events Conditions
12:54 AM 50.0 °F - 48.0 °F 93% 30.11 in 10.0 mi Calm Calm - N/A   Clear
1:54 AM 48.0 °F - 46.0 °F 93% 30.13 in 10.0 mi Calm Calm - N/A   Clear
2:54 AM 45.0 °F 42.6 °F 43.0 °F 93% 30.13 in 10.0 mi SSE 4.6 mph - N/A   Clear
3:54 AM 44.1 °F - 42.1 °F 93% 30.14 in 10.0 mi Calm Calm - N/A   Clear
4:54 AM 44.1 °F - 42.1 °F 93% 30.14 in 10.0 mi Calm Calm - N/A   Clear
5:54 AM 43.0 °F - 41.0 °F 93% 30.16 in 10.0 mi Calm Calm - N/A   Clear
6:54 AM 46.0 °F - 43.0 °F 89% 30.18 in 10.0 mi Calm Calm - N/A   Clear
7:54 AM 54.0 °F - 50.0 °F 86% 30.18 in 10.0 mi Calm Calm - N/A   Clear
8:54 AM 64.0 °F - 52.0 °F 65% 30.19 in 10.0 mi SSE 3.5 mph - N/A   Clear
9:54 AM 70.0 °F - 53.1 °F 55% 30.20 in 10.0 mi SSW 6.9 mph - N/A   Clear
10:54 AM 73.9 °F - 50.0 °F 43% 30.19 in 10.0 mi South 8.1 mph - N/A   Clear
11:54 AM 77.0 °F - 48.0 °F 36% 30.19 in 10.0 mi SSE 5.8 mph - N/A   Clear
12:54 PM 78.1 °F - 46.9 °F 33% 30.18 in 10.0 mi Calm Calm - N/A   Clear
1:54 PM 80.1 °F - 48.0 °F 32% 30.17 in 10.0 mi ESE 3.5 mph - N/A   Clear
2:54 PM 81.0 °F - 50.0 °F 34% 30.15 in 10.0 mi Variable 3.5 mph - N/A   Clear
3:54 PM 82.9 °F - 50.0 °F 32% 30.14 in 10.0 mi East 6.9 mph - N/A   Clear
4:54 PM 82.9 °F - 51.1 °F 33% 30.14 in 10.0 mi East 5.8 mph - N/A   Clear
5:54 PM 80.1 °F - 55.0 °F 42% 30.14 in 10.0 mi North 12.7 mph - N/A   Clear
6:54 PM 79.0 °F - 53.1 °F 40% 30.13 in 10.0 mi NNE 9.2 mph - N/A   Clear
7:54 PM 78.1 °F - 54.0 °F 43% 30.13 in 10.0 mi NNE 10.4 mph - N/A   Clear
8:54 PM 71.1 °F - 54.0 °F 55% 30.12 in 10.0 mi NW 4.6 mph - N/A   Clear
9:54 PM 63.0 °F - 55.0 °F 75% 30.14 in 10.0 mi Calm Calm - N/A   Clear
10:54 PM 59.0 °F - 54.0 °F 83% 30.14 in 10.0 mi Calm Calm - N/A   Clear
11:54 PM 55.9 °F - 54.0 °F 93% 30.14 in 10.0 mi Calm Calm - N/A   Clear